This is the latest recevied weather packets stored in our database for station/object SV9FBP-13. If no packets are shown the sender has not sent any weather packets the latest 10 day(s).
| Time | Temp. | Humidity | Pressure | Rain* | Wind** | Luminosity | Snow |
|---|---|---|---|---|---|---|---|
| 1788110072 | 28.89° C | 30% | 1009.2 hPa | 0 mm | - | - | - |
| 1788109170 | 28.89° C | 33% | 1009.2 hPa | 0 mm | - | - | - |
| 1788108267 | 28.33° C | 37% | 1009.2 hPa | 0 mm | - | - | - |
| 1788107365 | 29.44° C | 33% | 1009.3 hPa | 0 mm | - | - | - |
| 1788106464 | 29.44° C | 33% | 1009.2 hPa | 0 mm | - | - | - |
| 1788105561 | 30° C | 32% | 1009.3 hPa | 0 mm | - | - | - |
| 1788104660 | 30.56° C | 30% | 1009.3 hPa | 0 mm | - | - | - |
| 1788103756 | 30.56° C | 30% | 1009.4 hPa | 0 mm | - | - | - |
| 1788102854 | 31.11° C | 30% | 1009.2 hPa | 0 mm | - | - | - |
| 1788101952 | 31.11° C | 34% | 1009 hPa | 0 mm | - | - | - |
| 1788101050 | 31.11° C | 30% | 1009.1 hPa | 0 mm | - | - | - |
| 1788100148 | 31.67° C | 31% | 1009.1 hPa | 0 mm | - | - | - |
| 1788099246 | 31.67° C | 30% | 1008.9 hPa | 0 mm | - | - | - |
| 1788098344 | 31.67° C | 25% | 1009.2 hPa | 0 mm | - | - | - |
| 1788097442 | 31.67° C | 30% | 1009.1 hPa | 0 mm | - | - | - |
| 1788096540 | 32.22° C | 31% | 1009.2 hPa | 0 mm | - | - | - |
| 1788095638 | 31.67° C | 32% | 1009.2 hPa | 0 mm | - | - | - |
| 1788094735 | 31.67° C | 34% | 1009.5 hPa | 0 mm | - | - | - |
| 1788093833 | 31.67° C | 39% | 1009.2 hPa | 0 mm | - | - | - |
| 1788092931 | 31.67° C | 37% | 1009.3 hPa | 0 mm | - | - | - |
| 1788092028 | 32.22° C | 36% | 1009.5 hPa | 0 mm | - | - | - |
| 1788091127 | 32.22° C | 34% | 1009.8 hPa | 0 mm | - | - | - |
| 1788090225 | 31.11° C | 41% | 1009.9 hPa | 0 mm | - | - | - |
| 1788089323 | 31.67° C | 41% | 1009.9 hPa | 0 mm | - | - | - |
| 1788088420 | 31.11° C | 43% | 1010 hPa | 0 mm | - | - | - |
* Rain latest hour (hover to see other rain measurements)
** Current wind speed in m/s (hover to see current wind gust speed)